Preview of NWS' New Version of Forecast
This preview is not operational and should not be used for support decisions.

Regional Weather Roundup (RWR)

Issued by National Weather Service (NWS)

                            
000
ASUS43 KTOP 231159
RWRKS 

WEATHER ROUNDUP FOR KANSAS
NATIONAL WEATHER SERVICE GOODLAND KS
700 AM CDT TUE JUL 23 2019

NOTE:  "FAIR" INDICATES FEW OR NO CLOUDS BELOW 12,000 FEET WITH NO
SIGNIFICANT WEATHER AND/OR OBSTRUCTIONS TO VISIBILITY.

KSZ001>006-013>018-027>032-041>047-231300-
NORTHWEST KANSAS
  
CITY           SKY/WX    TMP DP  RH WIND       PRES   REMARKS
GOODLAND       PTCLDY    57  55  93 S8        30.37R                  
6HR MIN TEMP:  57; 6HR MAX TEMP:  61;                                

HAYS           CLEAR     54  52  93 W6        30.34R                  
HILL CITY      CLEAR     55  53  93 W3        30.36R                  
6HR MIN TEMP:  53; 6HR MAX TEMP:  62;                                

RUSSELL        CLEAR     57  52  83 N6        30.32R                  
6HR MIN TEMP:  56; 6HR MAX TEMP:  64;                                

$$

KSZ061>065-074>080-084>089-231300-
SOUTHWEST KANSAS
  
CITY           SKY/WX    TMP DP  RH WIND       PRES   REMARKS
DODGE CITY     CLEAR     58  53  84 CALM      30.35R                  
6HR MIN TEMP:  55; 6HR MAX TEMP:  61;                                

GARDEN CITY    PTCLDY    57  53  86 E6        30.35R                  
6HR MIN TEMP:  56; 6HR MAX TEMP:  64;                                

GREAT BEND     CLEAR     56  54  93 W5        30.33R                  
LIBERAL        CLEAR     60  54  80 E8        30.36R                  
$$

KSZ066>073-081>083-090>101-231300-
SOUTHEAST KANSAS
  
CITY           SKY/WX    TMP DP  RH WIND       PRES   REMARKS
CHANUTE        CLEAR     63  57  81 N5        30.25R                  
6HR MIN TEMP:  62; 6HR MAX TEMP:  66;                                

COFFEYVILLE    CLEAR     63  58  83 N5        30.23R                  
6HR MIN TEMP:  63; 6HR MAX TEMP:  68;                                

HUTCHINSON     CLEAR     56  53  90 N3        30.30R                  
6HR MIN TEMP:  54; 6HR MAX TEMP:  62;                                

MEDICINE LODGE   N/A     56  54  93 N5        30.30R                  
NEWTON           N/A     58  55  90 N6        30.30R                  
PARSONS        CLEAR     62  57  83 CALM      30.25R                  
6HR MIN TEMP:  62; 6HR MAX TEMP:  66;                                

WICHITA INTL   CLEAR     62  55  77 N6        30.29R                  
6HR MIN TEMP:  58; 6HR MAX TEMP:  70;                                

WICHITA JABRA  CLEAR     58  54  86 NW6       30.29R                  
6HR MIN TEMP:  57; 6HR MAX TEMP:  61;                                

WICHITA MCCONL CLEAR     60  53  78 N7        30.29R                  
WINFIELD       CLEAR     60  56  86 N6        30.28R                  
6HR MIN TEMP:  58; 6HR MAX TEMP:  67;                                

$$

KSZ007>012-019>026-033>040-048>060-102>105-231300-
NORTHEAST KANSAS
  
CITY           SKY/WX    TMP DP  RH WIND       PRES   REMARKS
CONCORDIA      CLEAR     58  54  86 CALM      30.31R                  
6HR MIN TEMP:  56; 6HR MAX TEMP:  65;                                

EMPORIA        CLEAR     57  57 100 NW5       30.28R                  
6HR MIN TEMP:  56; 6HR MAX TEMP:  65;                                

LAWRENCE       CLEAR     59  55  87 NW8       30.27R                  
6HR MIN TEMP:  57; 6HR MAX TEMP:  63;                                

MANHATTAN      CLEAR     56  54  93 CALM      30.30R                  
6HR MIN TEMP:  54; 6HR MAX TEMP:  60;                                

OLATHE IND     PTCLDY    58  55  90 N6        30.27R                  
6HR MIN TEMP:  57; 6HR MAX TEMP:  62;                                

OLATHE EXE     CLEAR     62  56  80 N6        30.26R                  
6HR MIN TEMP:  61; 6HR MAX TEMP:  67;                                

SALINA         CLEAR     58  54  86 NW5       30.30S                  
6HR MIN TEMP:  57; 6HR MAX TEMP:  65;                                

TOPEKA BILLARD CLEAR     60  57  89 N3        30.27R                  
6HR MIN TEMP:  58; 6HR MAX TEMP:  64;                                

TOPEKA FORBES  CLEAR     60  56  86 N6        30.27R                  
6HR MIN TEMP:  57; 6HR MAX TEMP:  65;                                

$$